EW3244 Weather Reports


Display with metric or nautical units.
time (UTC)temp
F
wind
direction
speed
MPH
gust
MPH
rain 1hr
in
rain 24hr
in
rain mn
in
humidity
%
barometer
mb
20260906060024 52 50 4.0 7.0 0.00 0.06 0.01 7 1012.2
20260906054518 52 40 4.0 7.0 0.00 0.06 0.01 8 1012.1
20260906053020 51 41 2.0 5.0 0.00 0.06 0.01 9 1011.9
20260906051509 51 43 1.0 4.0 0.00 0.06 0.01 11 1011.6
20260906050004 50 38 2.0 5.0 0.00 0.06 0.01 12 1011.4
20260906044600 50 38 1.0 4.0 0.00 0.06 0.01 14 1011.2
20260906043057 49 45 0.0 2.0 0.00 0.06 0.01 16 1011.0
20260906041555 48 45 0.0 2.0 0.00 0.06 0.01 17 1010.9
20260906040053 48 46 0.0 1.0 0.00 0.06 0.01 18 1010.6
20260906034552 48 45 0.0 1.0 0.00 0.06 0.01 18 1010.5
20260906033148 48 45 0.0 1.0 0.00 0.06 0.01 19 1010.2
20260906031549 48 45 0.0 2.0 0.00 0.06 0.01 19 1010.0
20260906030051 48 45 0.0 1.0 0.00 0.06 0.01 20 1010.0
20260906024543 49 45 0.0 1.0 0.00 0.06 0.01 20 1009.7
20260906023046 48 46 0.0 1.0 0.00 0.06 0.01 21 1009.6
20260906021540 48 45 0.0 1.0 0.00 0.06 0.01 23 1009.5
20260906020039 48 46 0.0 1.0 0.01 0.06 0.01 24 1009.4
20260906014542 48 45 0.0 1.0 0.01 0.06 0.01 26 1009.2
20260906013033 46 45 0.0 0.0 0.01 0.06 0.01 31 1008.9
20260906011530 47 46 0.0 0.0 0.01 0.06 0.01 30 1008.7
20260906010028 48 46 0.0 1.0 0.00 0.05 0.00 30 1008.5
20260906004525 47 45 0.0 0.0 0.00 0.05 0.00 33 1008.3
20260906003023 47 45 0.0 1.0 0.00 0.05 0.00 35 1008.1
20260906001520 48 46 0.0 2.0 0.00 0.05 0.00 33 1007.9
20260906000018 48 46 0.0 1.0 0.00 0.05 0.00 34 1007.8
20260905234514 48 45 0.0 1.0 0.00 0.05 0.00 35 1007.5
20260905233012 48 46 0.0 1.0 0.00 0.05 0.00 37 1007.3
20260905231510 48 46 0.0 2.0 0.00 0.05 0.00 38 1007.1
20260905230007 48 81 0.0 0.0 0.00 0.05 0.00 41 1007.0
20260905224512 48 81 0.0 0.0 0.00 0.05 0.00 43 1006.8
20260905223003 48 81 0.0 0.0 0.00 0.05 0.00 44 1006.5
20260905221600 48 81 0.0 0.0 0.00 0.05 0.00 48 1006.3
20260905220057 48 81 0.0 0.0 0.00 0.05 0.00 51 1006.2
20260905214555 49 81 0.0 1.0 0.00 0.05 0.05 50 1005.9
20260905213050 50 81 0.0 1.0 0.00 0.05 0.05 50 1005.7
20260905211548 50 81 0.0 2.0 0.00 0.05 0.05 52 1005.5
20260905210045 51 81 0.0 2.0 0.00 0.05 0.05 54 1005.2
20260905204543 51 81 0.0 1.0 0.00 0.05 0.05 55 1004.9
20260905203041 52 81 0.0 2.0 0.00 0.05 0.05 55 1004.6
20260905201539 52 52 0.0 1.0 0.00 0.05 0.05 58 1004.3
20260905200041 53 52 0.0 0.0 0.02 0.05 0.05 59 1004.1
20260905194533 54 50 1.0 2.0 0.03 0.05 0.05 60 1003.8
20260905193033 54 43 0.0 2.0 0.03 0.05 0.05 61 1003.7
20260905191530 54 43 0.0 4.0 0.02 0.04 0.04 63 1003.5
20260905190037 54 9 2.0 4.0 0.02 0.03 0.03 67 1003.1
20260905184529 54 69 0.0 1.0 0.00 0.02 0.02 70 1003.3
20260905183028 54 69 0.0 1.0 0.00 0.02 0.02 74 1003.2
20260905181526 55 69 1.0 3.0 0.00 0.02 0.02 75 1003.0
20260905180023 55 42 0.0 3.0 0.00 0.02 0.02 77 1002.7
20260905174533 56 42 1.0 4.0 0.00 0.02 0.02 78 1002.5
20260905173027 56 48 1.0 3.0 0.00 0.02 0.02 80 1002.3
20260905171520 57 57 2.0 4.0 0.00 0.02 0.02 81 1002.2
20260905170018 58 71 1.0 7.0 0.00 0.02 0.02 81 1002.0
20260905164516 58 58 3.0 9.0 0.00 0.02 0.02 81 1001.8
20260905163021 58 65 3.0 7.0 0.00 0.02 0.02 80 1001.5
20260905161512 58 64 4.0 7.0 0.00 0.02 0.02 79 1001.4
20260905160012 59 70 2.0 5.0 0.00 0.02 0.02 79 1001.4
20260905154510 59 57 3.0 7.0 0.00 0.02 0.02 77 1001.2
20260905153010 59 97 4.0 7.0 0.00 0.02 0.02 76 1001.1
20260905151506 59 85 4.0 8.0 0.00 0.02 0.02 78 1001.0
20260905150006 58 86 3.0 8.0 0.00 0.02 0.02 78 1000.9
20260905144504 59 57 3.0 7.0 0.00 0.02 0.02 80 1000.7
20260905143002 59 35 5.0 7.0 0.00 0.02 0.02 79 1000.5
20260905141502 59 74 2.0 6.0 0.00 0.02 0.02 78 1000.5
20260905140101 59 60 6.0 10.0 0.00 0.02 0.02 77 1000.4
20260905134558 60 54 5.0 8.0 0.00 0.02 0.02 75 1000.3
20260905133057 60 69 4.0 10.0 0.00 0.02 0.02 73 1000.2
20260905131617 60 76 4.0 7.0 0.00 0.02 0.02 75 1000.1
20260905130100 60 93 4.0 9.0 0.00 0.02 0.02 73 1000.0
20260905124553 60 70 4.0 8.0 0.00 0.02 0.02 72 999.8
20260905123059 61 115 1.0 5.0 0.00 0.02 0.02 72 999.7
20260905121551 62 136 1.0 5.0 0.00 0.02 0.02 72 999.5
20260905120051 61 59 3.0 9.0 0.00 0.02 0.02 76 999.6
20260905114546 61 62 4.0 8.0 0.00 0.02 0.02 77 999.4
20260905113044 60 69 2.0 10.0 0.00 0.02 0.02 79 999.3
20260905111640 59 58 3.0 9.0 0.00 0.02 0.02 79 999.3
20260905110038 59 59 3.0 8.0 0.00 0.02 0.02 81 999.2
20260905104535 58 62 5.0 10.0 0.00 0.02 0.02 81 999.1
20260905103035 58 69 4.0 9.0 0.00 0.02 0.02 81 999.0
20260905101539 57 62 4.0 7.0 0.00 0.02 0.02 81 998.9
20260905100028 56 65 2.0 5.0 0.00 0.02 0.02 74 998.8
20260905094524 55 63 1.0 4.0 0.00 0.02 0.02 70 998.7
20260905093020 55 42 1.0 5.0 0.00 0.02 0.02 68 998.7
20260905091519 54 53 1.0 3.0 0.01 0.02 0.02 64 998.6
20260905090017 53 53 1.0 3.0 0.02 0.02 0.02 63 998.4
20260905084544 53 54 1.0 4.0 0.02 0.04 0.02 65 998.4
20260905083020 53 29 2.0 5.0 0.01 0.03 0.01 69 998.4
20260905081514 53 64 2.0 4.0 0.01 0.03 0.01 68 998.2
20260905080012 53 53 2.0 4.0 0.00 0.02 0.00 70 998.1
20260905074511 53 53 1.0 3.0 0.00 0.10 0.00 70 997.9
20260905073015 53 63 0.0 5.0 0.00 0.10 0.00 68 997.8
20260905071508 53 63 2.0 5.0 0.00 0.10 0.00 66 997.6
20260905070007 53 67 2.0 4.0 0.00 0.10 0.00 63 997.4
20260905064504 52 59 2.0 5.0 0.00 0.17 0.00 57 997.3
20260905063005 52 58 1.0 3.0 0.00 0.17 0.00 54 997.1
20260905061502 52 52 1.0 3.0 0.00 0.17 0.00 52 996.9